Location: Rio Negrinho
(26.2394°S, 49.4999°W)
Time: 08:04:02
(UTC+00:00)

H-2A R/B - Pass Details

Date: 07 October 2020
Orbit: 500 x 542 km, 97.3° (Epoch: 17 June)

Event Time Altitude Azimuth Distance (km) Brightness Sun altitude
Rises 07:22:39 0° 54° (NE) 2,645 6.8 -20.1°
Reaches altitude 10° 07:25:53 10° 85° (E) 1,778 6.4 -19.4°
Maximum altitude 07:27:27 12° 109° (ESE) 1,650 6.4 -19.1°
Drops below altitude 10° 07:29:01 10° 133° (SE) 1,798 6.4 -18.8°
Sets 07:32:19 0° 163° (SSE) 2,708 6.8 -18.1°
